Location: Stara Lesna
(49.1528°N, 20.2911°E)
Time: 11:00:27
(UTC+02:00)

Cosmos 540 Rocket - Pass Details

Date: 21 September 2019
Orbit: 739 x 754 km, 74.1° (Epoch: 13 October)

Event Time Altitude Azimuth Distance (km) Brightness Sun altitude
Exits shadow 03:36:51 45° 321° (NW) 1,027 4.0 -26.2°
Drops below altitude 10° 03:41:15 10° 14° (NNE) 2,286 6.6 -25.6°
Sets 03:43:43 0° 20° (NNE) 3,216 7.6 -25.3°
